Zurück zum Katalog

TITAN 3C TRANSTAGE DEB

AktivHEO
NORAD 27878·DEBRIS·🇺🇸 United States

Gestartet Dec 21, 1965 von Cape Canaveral Space Force Station

Loading…

Nächste Überflüge (nächste 24 Stunden)

TLE

AktuellSource: Space-Track

Epoche: Sep 14, 2026, 21:27 UTC

1 27878U 65108BP  26257.89408150  .00000093  00000-0  92018-3 0  9994
2 27878  26.4057  81.4765 6708497 156.6350 357.7171  2.84494000128762

Verfolge TITAN 3C TRANSTAGE DEB in Echtzeit mit AllMySat

Download on the App Store